Tallahassee, FL

4:49 PM EST on December 05, 2016 (GMT -0500)
Tallahassee Regional

Weather History for KTLH - June, 2013

Change the Weather History Date:

Sunday, June 16, 2013

  Actual Average Record
Temperature  
Mean Temperature 82 °F 80 °F  
Max Temperature 92 °F 91 °F 100 °F (2009)
Min Temperature 72 °F 70 °F 55 °F (1933)
Degree Days  
Heating Degree Days 0    
Month to date heating degree days  
Since 1 June heating degree days  
Since 1 July heating degree days  
Cooling Degree Days 16    
Month to date cooling degree days  
Year to date cooling degree days  
Since 1 June cooling degree days  
Growing Degree Days 32 (Base 50)    
Moisture  
Dew Point 69 °F    
Average Humidity 64    
Maximum Humidity 81    
Minimum Humidity 37    
Precipitation  
Precipitation 0.06 in 0.28 in 2.66 in (1987)
Month to date precipitation 3.15 3.88  
Year to date precipitation 25.54 25.54  
Sea Level Pressure  
Sea Level Pressure 30.07 in    
Wind  
Wind Speed 6 mph (SE)    
Max Wind Speed 9 mph    
Max Gust Speed -    
Visibility 10 miles    
Events Rain    
T = Trace of Precipitation, MM = Missing Value Source: NWS Daily Summary

Daily Weather History Graph

Daily Weather History Graph

Search for Another Location

Airport or City:

Trip Planner

Search our weather history database for the weather conditions in past years. The results will help you decide how hot, cold, wet, or windy it might be!

Date:

Astronomy

Jun. 16, 2013 Rise Set
Actual Time 6:35 AM EDT 8:41 PM EDT
Civil Twilight 6:07 AM EDT 9:08 PM EDT
Nautical Twilight 5:33 AM EDT 9:42 PM EDT
Astronomical Twilight 4:57 AM EDT 10:18 PM EDT
Moon 1:40 PM EDT (6/16) 1:12 AM EDT (6/16)
Length of Visible Light 15h 01m
Length of Day
14h 06m
Waxing Crescent, 49% of the Moon is Illuminated
Jun 16
Waxing Crescent
Jun 16
First Quarter
Jun 23
Full
Jun 30
Last Quarter
Jul 8
New

Hourly Weather History & Observations

Time (EDT) Temp. Heat Index Dew Point Humidity Pressure Visibility Wind Dir Wind Speed Gust Speed Precip Events Conditions
12:53 AM 79.0 °F - 66.9 °F 66% 30.07 in 10.0 mi ESE 9.2 mph - N/A   Clear
1:53 AM 77.0 °F - 66.0 °F 69% 30.08 in 10.0 mi ESE 8.1 mph - N/A   Clear
2:53 AM 75.0 °F - 66.0 °F 73% 30.07 in 10.0 mi ESE 8.1 mph - N/A   Clear
3:53 AM 73.9 °F - 64.9 °F 73% 30.07 in 10.0 mi ESE 4.6 mph - N/A   Clear
4:53 AM 73.0 °F - 64.9 °F 76% 30.08 in 10.0 mi ESE 4.6 mph - N/A   Clear
5:53 AM 73.0 °F - 66.0 °F 79% 30.08 in 10.0 mi East 5.8 mph - N/A   Clear
6:53 AM 73.0 °F - 66.0 °F 79% 30.08 in 10.0 mi East 5.8 mph - N/A   Clear
7:53 AM 75.0 °F - 66.0 °F 73% 30.09 in 10.0 mi ESE 9.2 mph - N/A   Partly Cloudy
8:53 AM 78.1 °F - 66.9 °F 68% 30.11 in 10.0 mi ESE 6.9 mph - N/A   Partly Cloudy
9:53 AM 82.0 °F 85.5 °F 69.1 °F 65% 30.11 in 10.0 mi ESE 9.2 mph - N/A   Scattered Clouds
10:53 AM 86.0 °F 91.5 °F 71.1 °F 61% 30.10 in 10.0 mi ESE 6.9 mph - N/A   Mostly Cloudy
11:53 AM 88.0 °F 92.9 °F 70.0 °F 55% 30.10 in 10.0 mi ESE 8.1 mph - N/A   Mostly Cloudy
12:25 PM 89.6 °F 94.7 °F 69.8 °F 52% 30.09 in 10.0 mi East 8.1 mph - N/A   Mostly Cloudy
12:53 PM 88.0 °F 92.1 °F 69.1 °F 53% 30.09 in 10.0 mi Calm Calm - N/A   Mostly Cloudy
1:53 PM 90.0 °F 92.8 °F 66.9 °F 46% 30.07 in 10.0 mi Calm Calm - N/A   Mostly Cloudy
2:53 PM 90.0 °F 95.4 °F 70.0 °F 52% 30.05 in 10.0 mi SSE 9.2 mph - N/A   Mostly Cloudy
3:53 PM 86.0 °F 93.8 °F 73.9 °F 67% 30.04 in 10.0 mi Calm Calm - 0.06 in Rain Light Rain
4:53 PM 88.0 °F 92.9 °F 70.0 °F 55% 30.03 in 10.0 mi SSE 4.6 mph - 0.00 in   Mostly Cloudy
5:53 PM 88.0 °F 92.9 °F 70.0 °F 55% 30.02 in 10.0 mi ESE 4.6 mph - N/A   Mostly Cloudy
6:53 PM 88.0 °F 91.4 °F 68.0 °F 51% 30.03 in 10.0 mi SE 9.2 mph - N/A   Mostly Cloudy
7:53 PM 84.9 °F 89.4 °F 70.0 °F 61% 30.03 in 10.0 mi SSE 3.5 mph - N/A   Scattered Clouds
8:53 PM 82.0 °F 86.3 °F 71.1 °F 69% 30.04 in 10.0 mi South 3.5 mph - N/A   Scattered Clouds
9:53 PM 81.0 °F 85.2 °F 72.0 °F 74% 30.05 in 10.0 mi SSW 3.5 mph - N/A   Mostly Cloudy
10:53 PM 80.1 °F 83.8 °F 72.0 °F 76% 30.06 in 10.0 mi Calm Calm - N/A   Scattered Clouds
11:53 PM 78.1 °F - 72.0 °F 81% 30.06 in 10.0 mi SSE 3.5 mph - N/A   Partly Cloudy